This is the latest recevied weather packets stored in our database for station/object OE5ERN-10. If no packets are shown the sender has not sent any weather packets the latest 10 day(s).
| Time | Temp. | Humidity | Pressure | Rain* | Wind** | Luminosity | Snow |
|---|---|---|---|---|---|---|---|
| 1776957057 | 18.33° C | 30% | 1024.2 hPa | 0 mm | - | - | - |
| 1776956157 | 18.33° C | 28% | 1024.2 hPa | 0 mm | - | - | - |
| 1776955257 | 18.33° C | 28% | 1024.4 hPa | 0 mm | - | - | - |
| 1776954357 | 18.89° C | 30% | 1024.3 hPa | 0 mm | - | - | - |
| 1776953457 | 18.89° C | 28% | 1024.6 hPa | 0 mm | - | - | - |
| 1776952557 | 19.44° C | 30% | 1024.9 hPa | 0 mm | - | - | - |
| 1776951657 | 18.89° C | 30% | 1024.9 hPa | 0 mm | - | - | - |
| 1776950757 | 18.89° C | 30% | 1025.2 hPa | 0 mm | - | - | - |
| 1776949857 | 18.89° C | 31% | 1025.5 hPa | 0 mm | - | - | - |
| 1776948957 | 18.33° C | 31% | 1025.5 hPa | 0 mm | - | - | - |
| 1776948057 | 18.89° C | 31% | 1025.9 hPa | 0 mm | - | - | - |
| 1776947157 | 18.89° C | 32% | 1026 hPa | 0 mm | - | - | - |
| 1776946257 | 18.89° C | 32% | 1026.3 hPa | 0 mm | - | - | - |
| 1776945357 | 18.33° C | 34% | 1026.5 hPa | 0 mm | - | - | - |
| 1776944457 | 17.22° C | 34% | 1026.6 hPa | 0 mm | - | - | - |
| 1776943557 | 17.78° C | 34% | 1026.9 hPa | 0 mm | - | - | - |
| 1776942657 | 17.78° C | 34% | 1027.3 hPa | 0 mm | - | - | - |
| 1776941757 | 17.22° C | 34% | 1027.5 hPa | 0 mm | - | - | - |
| 1776940857 | 17.22° C | 34% | 1027.5 hPa | 0 mm | - | - | - |
| 1776939957 | 17.22° C | 33% | 1027.7 hPa | 0 mm | - | - | - |
| 1776939058 | 18.33° C | 31% | 1028.1 hPa | 0 mm | - | - | - |
| 1776938158 | 22.78° C | 25% | 1028.1 hPa | 0 mm | - | - | - |
| 1776937257 | 28.33° C | 22% | 1028.2 hPa | 0 mm | - | - | - |
| 1776936357 | 29.44° C | 22% | 1028.3 hPa | 0 mm | - | - | - |
| 1776935458 | 27.78° C | 23% | 1028.4 hPa | 0 mm | - | - | - |
* Rain latest hour (hover to see other rain measurements)
** Current wind speed in m/s (hover to see current wind gust speed)